STARLINK-32876, 63151

Orbit data source: Space-Track

STARLINK-32876, 63151 is a payload satellite owned by SpaceX/Seattle (US) in LEO that was launched on Mon, 03 Mar 2025 UTC via an FALCON 9 launch vehicle from the Air Force Eastern Test Range (AFETR). Payload-class satellites include a variety of spacecraft equipped with specific instruments for various scientific and technological missions. These include communications satellites like Starlink; space stations such as the ISS; scientific satellites like the Hubble; Earth observation satellites from companies like Planet Labs, Umbra, and HawkEye 360; GPS; miniature CubeSats for education and research; and military/defense satellites.

Loading next visibility...
Identifier
63151, 2025-043V
Orbit
LEO
Country
Flag of USUS
Related business
Manufacturer
SpaceX/Seattle
Mission
Operational Commercial Communications
Bus & Motor
STARLINK V2M, Unknown motor
Mass
730 kg wet, ~700 kg dry
Launch date (UTC)
2025-03-03 (2 years ago)
Launch vehicle
FALCON 9
Launch site
Air Force Eastern Test Range (AFETR)
Object type
Payload
Rocket body
Debris
Shape & HBR
Box + 2 Pan, 17.7 m
Radar Cross Section
33.884 m², Large (>1 m²)

Expand to show TLE details & history
Last TLE update: 20 hours ago

TLE from 20 hours ago
0 STARLINK-32876
1 63151U 25043V   26255.47297872  .00010603  00000-0  39409-3 0  9994
2 63151  43.0025  40.9174 0001510 236.2470 123.8238 15.27594935 85930
Epoch: 2026-09-12T11:21Z
TLE epoch observation values (Epoch: 2026-09-12T11:21:05.361Z)
Latitude
-0.00001°
Longitude
-120.83643°
Altitude
483.357 km
Speed
7.625 km/s
True Right ascension
02h 43m 40s
True Declination
0° 00' 00"
Sunlit
Object was in full shadow at epoch
Visualization orbit readout
Latitude
Unknown
Longitude
Unknown
Altitude
Unknown
Speed
Unknown
Apparent Right ascension
Unknown
Apparent Declination
Unknown
Sunlit
N/A
Visualization observer readout
Local Sidereal Time
23:49:08
Azimuth
Unknown
Elevation
Unknown
Doppler factor
Unknown
Orbital elements
Apogee altitude
485.985 km
Perigee altitude
483.913 km
Semi-major axis
6,863.086 km
Eccentricity
0.00015
Inclination
43.0025°
RAAN
40.9174°
Arg. of periapsis
236.247°
True anomaly
123.83817°
Mean anomaly
123.8238°
Eccentric anomaly
123.83099°
Mean motion
3.81737 °/min
Orbital period
94.31 mins
BSTAR
0.00039409
Loading maneuver chart data...
Computing Atmospheric mass density...
Loading historical data...
Loading historical data...
Loading historical data...
Loading historical data...
Loading historical data...
Loading historical data...
Loading historical data...

Documentation

Showing up to 5 results
|